Orbital Elements at Epoch 2459200.5 (2020-Dec-17.0) TDB
Reference: JPL 17 (heliocentric ecliptic J2000)
Element | Value | Uncertainty (1-sigma) | Units |
e | .03779274706406974 | 6.5596e-08 | |
a | 5.20474235053573 | 1.2394e-07 | au |
q | 5.008040839348281 | 3.6379e-07 | au |
i | 4.405903824734449 | 7.1962e-06 | deg |
node | 171.4541304924469 | 6.736e-05 | deg |
peri | 199.8494331818528 | 0.00010646 | deg |
M | 30.80363486504843 | 7.8072e-05 | deg |
tp | 2458829.395050852806 (2019-Dec-11.89505085) | 0.00094756 | TDB |
period | 4337.0784739621 11.87 | 0.00015492 4.241e-07 | d yr |
n | .0830051847485077 | 2.9649e-09 | deg/d |
Q | 5.401443861723179 | 1.2862e-07 | au |
|
| | Orbit Determination Parameters
Additional Information
|